Weather History for Winchester, VA

Change the Weather History Date:

Wednesday, November 13, 2013

  Actual Average Record
Temperature  
Mean Temperature 34 °F -  
Max Temperature 41 °F 55 °F 69 °F (2005)
Min Temperature 26 °F 36 °F 23 °F (2001)
Degree Days  
Heating Degree Days 32    
Moisture  
Dew Point 20 °F    
Average Humidity 61    
Maximum Humidity 75    
Minimum Humidity 42    
Precipitation  
Precipitation 0.00 in - - ()
Sea Level Pressure  
Sea Level Pressure 30.42 in    
Wind  
Wind Speed 9 mph (WNW)    
Max Wind Speed 17 mph    
Max Gust Speed 23 mph    
Visibility 10 miles    
Events      
Averages and records for this station are not official NWS values.
T = Trace of Precipitation, MM = Missing Value Source: NWS Daily Summary

Daily Weather History Graph

Daily Weather History Graph

Search for Another Location

Airport:

Trip Planner

Search our weather history database for the weather conditions in past years. The results will help you decide how hot, cold, wet, or windy it might be!

Date:

Astronomy

Nov. 13, 2013 Rise Set
Actual Time 6:53 AM EST 4:59 PM EST
Civil Twilight 6:25 AM EST 5:28 PM EST
Nautical Twilight 5:53 AM EST 6:00 PM EST
Astronomical Twilight 5:21 AM EST 6:31 PM EST
Moon 2:44 PM EST (11/13) 2:46 AM EST (11/13)
Length of Visible Light 11h 02m
Length of Day
10h 05m
Waxing Gibbous, 84% of the Moon is Illuminated
Nov 13
Waxing Gibbous
Nov 17
Full
Nov 25
Last Quarter
Dec 2
New
Dec 9
First Quarter

Hourly Weather History & Observations

Time (EST) Temp. Windchill Dew Point Humidity Pressure Visibility Wind Dir Wind Speed Gust Speed Precip Events Conditions
12:15 AM 30.2 °F 21.9 °F 21.2 °F 69% 30.41 in 10.0 mi WNW 9.2 mph 16.1 mph N/A   Clear
12:35 AM 30.2 °F 21.9 °F 21.2 °F 69% 30.41 in 10.0 mi WNW 9.2 mph - N/A   Clear
12:55 AM 30.2 °F 23.4 °F 21.2 °F 69% 30.41 in 10.0 mi NW 6.9 mph - N/A   Clear
1:15 AM 30.2 °F 25.4 °F 21.2 °F 69% 30.41 in 10.0 mi NW 4.6 mph - N/A   Scattered Clouds
1:35 AM 28.4 °F 21.2 °F 21.2 °F 74% 30.40 in 10.0 mi NW 6.9 mph - N/A   Scattered Clouds
1:55 AM 30.2 °F 25.4 °F 21.2 °F 69% 30.40 in 10.0 mi NW 4.6 mph - N/A   Scattered Clouds
2:15 AM 30.2 °F 25.4 °F 21.2 °F 69% 30.40 in 10.0 mi NNW 4.6 mph - N/A   Scattered Clouds
2:35 AM 28.4 °F 24.6 °F 21.2 °F 74% 30.40 in 10.0 mi NW 3.5 mph - N/A   Scattered Clouds
2:55 AM 28.4 °F 24.6 °F 21.2 °F 74% 30.41 in 10.0 mi WNW 3.5 mph - N/A   Clear
3:15 AM 30.2 °F 26.7 °F 21.2 °F 69% 30.40 in 10.0 mi NW 3.5 mph - N/A   Mostly Cloudy
3:35 AM 30.2 °F 24.3 °F 23.0 °F 75% 30.41 in 10.0 mi NW 5.8 mph - N/A   Overcast
3:55 AM 30.2 °F 20.8 °F 23.0 °F 75% 30.41 in 10.0 mi NW 11.5 mph - N/A   Overcast
4:15 AM 30.2 °F 21.3 °F 23.0 °F 75% 30.41 in 10.0 mi WNW 10.4 mph - N/A   Mostly Cloudy
4:35 AM 30.2 °F 21.3 °F 23.0 °F 75% 30.41 in 10.0 mi WNW 10.4 mph - N/A   Overcast
4:55 AM 30.2 °F 19.8 °F 23.0 °F 75% 30.42 in 10.0 mi WNW 13.8 mph - N/A   Overcast
5:15 AM 30.2 °F 20.8 °F 21.2 °F 69% 30.43 in 10.0 mi WNW 11.5 mph - N/A   Mostly Cloudy
5:35 AM 30.2 °F 19.3 °F 21.2 °F 69% 30.43 in 10.0 mi WNW 15.0 mph 18.4 mph N/A   Clear
5:55 AM 30.2 °F 19.8 °F 21.2 °F 69% 30.43 in 10.0 mi WNW 13.8 mph - N/A   Scattered Clouds
6:15 AM 30.2 °F 20.2 °F 21.2 °F 69% 30.43 in 10.0 mi NW 12.7 mph - N/A   Scattered Clouds
6:35 AM 30.2 °F 19.8 °F 21.2 °F 69% 30.44 in 10.0 mi NW 13.8 mph - N/A   Scattered Clouds
6:55 AM 30.2 °F 19.8 °F 21.2 °F 69% 30.45 in 10.0 mi WNW 13.8 mph 19.6 mph N/A   Scattered Clouds
7:15 AM 30.2 °F 20.8 °F 21.2 °F 69% 30.45 in 10.0 mi WNW 11.5 mph 19.6 mph N/A   Mostly Cloudy
7:35 AM 30.2 °F 20.2 °F 21.2 °F 69% 30.46 in 10.0 mi NW 12.7 mph - N/A   Overcast
7:55 AM 32.0 °F 22.1 °F 21.2 °F 64% 30.46 in 10.0 mi NW 13.8 mph - N/A   Scattered Clouds
8:15 AM 32.0 °F 21.2 °F 21.2 °F 64% 30.47 in 10.0 mi NW 16.1 mph - N/A   Scattered Clouds
8:35 AM 32.0 °F 22.1 °F 21.2 °F 64% 30.48 in 10.0 mi WNW 13.8 mph 19.6 mph N/A   Mostly Cloudy
8:55 AM 32.0 °F 21.6 °F 21.2 °F 64% 30.48 in 10.0 mi NW 15.0 mph - N/A   Mostly Cloudy
9:15 AM 33.8 °F 24.3 °F 21.2 °F 60% 30.48 in 10.0 mi WNW 13.8 mph - N/A   Mostly Cloudy
9:35 AM 33.8 °F 23.2 °F 21.2 °F 60% 30.48 in 10.0 mi WNW 17.3 mph 21.9 mph N/A   Mostly Cloudy
9:55 AM 33.8 °F 23.9 °F 21.2 °F 60% 30.48 in 10.0 mi WNW 15.0 mph 18.4 mph N/A   Scattered Clouds
10:15 AM 33.8 °F 23.9 °F 21.2 °F 60% 30.49 in 10.0 mi NW 15.0 mph 20.7 mph N/A   Scattered Clouds
10:35 AM 35.6 °F 27.5 °F 21.2 °F 56% 30.49 in 10.0 mi NNW 11.5 mph - N/A   Scattered Clouds
10:55 AM 35.6 °F 29.2 °F 21.2 °F 56% 30.48 in 10.0 mi NNW 8.1 mph 18.4 mph N/A   Unknown
11:15 AM 35.6 °F 27.1 °F 21.2 °F 56% 30.47 in 10.0 mi NW 12.7 mph 21.9 mph N/A   Unknown
11:35 AM 37.4 °F 28.9 °F 21.2 °F 52% 30.47 in 10.0 mi WNW 13.8 mph 18.4 mph N/A   Mostly Cloudy
11:55 AM 37.4 °F 29.8 °F 21.2 °F 52% 30.45 in 10.0 mi WNW 11.5 mph 18.4 mph N/A   Scattered Clouds
12:15 PM 39.2 °F 30.8 °F 21.2 °F 49% 30.44 in 10.0 mi West 15.0 mph 20.7 mph N/A   Clear
12:35 PM 39.2 °F 32.0 °F 21.2 °F 49% 30.43 in 10.0 mi NW 11.5 mph 19.6 mph N/A   Clear
12:55 PM 39.2 °F 31.6 °F 21.2 °F 49% 30.42 in 10.0 mi West 12.7 mph 18.4 mph N/A   Clear
1:15 PM 41.0 °F 33.1 °F 21.2 °F 45% 30.42 in 10.0 mi West 15.0 mph - N/A   Unknown
1:35 PM 41.0 °F 34.7 °F 21.2 °F 45% 30.42 in 10.0 mi WNW 10.4 mph 18.4 mph N/A   Scattered Clouds
1:55 PM 41.0 °F 33.5 °F 19.4 °F 42% 30.41 in 10.0 mi WNW 13.8 mph 21.9 mph N/A   Scattered Clouds
2:15 PM 41.0 °F 34.3 °F 21.2 °F 45% 30.41 in 10.0 mi WNW 11.5 mph - N/A   Unknown
2:35 PM 41.0 °F 34.3 °F 19.4 °F 42% 30.41 in 10.0 mi WNW 11.5 mph 21.9 mph N/A   Clear
2:55 PM 41.0 °F 34.7 °F 19.4 °F 42% 30.41 in 10.0 mi NW 10.4 mph 23.0 mph N/A   Clear
3:15 PM 41.0 °F 34.7 °F 19.4 °F 42% 30.41 in 10.0 mi West 10.4 mph - N/A   Clear
3:35 PM 41.0 °F 34.7 °F 19.4 °F 42% 30.41 in 10.0 mi WNW 10.4 mph - N/A   Scattered Clouds
3:55 PM 41.0 °F 34.3 °F 19.4 °F 42% 30.41 in 10.0 mi West 11.5 mph - N/A   Mostly Cloudy
4:15 PM 39.2 °F 31.6 °F 19.4 °F 45% 30.41 in 10.0 mi West 12.7 mph - N/A   Scattered Clouds
4:35 PM 37.4 °F 29.8 °F 19.4 °F 48% 30.41 in 10.0 mi West 11.5 mph - N/A   Clear
4:55 PM 35.6 °F 28.0 °F 19.4 °F 52% 30.41 in 10.0 mi West 10.4 mph - N/A   Clear
5:15 PM 35.6 °F 28.6 °F 19.4 °F 52% 30.42 in 10.0 mi WNW 9.2 mph - N/A   Scattered Clouds
5:35 PM 35.6 °F 28.0 °F 19.4 °F 52% 30.43 in 10.0 mi WNW 10.4 mph - N/A   Scattered Clouds
5:55 PM 33.8 °F 28.6 °F 19.4 °F 56% 30.43 in 10.0 mi West 5.8 mph - N/A   Clear
6:15 PM 33.8 °F 29.6 °F 19.4 °F 56% 30.43 in 10.0 mi West 4.6 mph - N/A   Clear
6:35 PM 33.8 °F 30.8 °F 19.4 °F 56% 30.43 in 10.0 mi West 3.5 mph - N/A   Mostly Cloudy
6:55 PM 33.8 °F 29.6 °F 17.6 °F 52% 30.43 in 10.0 mi West 4.6 mph - N/A   Scattered Clouds
7:15 PM 32.0 °F - 19.4 °F 60% 30.42 in 10.0 mi Calm Calm - N/A   Clear
7:35 PM 32.0 °F - 19.4 °F 60% 30.42 in 10.0 mi Calm Calm - N/A   Clear
7:55 PM 26.6 °F - 17.6 °F 69% 30.42 in 10.0 mi Calm Calm - N/A   Clear
8:15 PM 28.4 °F - 19.4 °F 69% 30.42 in 10.0 mi Calm Calm - N/A   Clear
8:35 PM 30.2 °F 26.7 °F 19.4 °F 64% 30.41 in 10.0 mi SSE 3.5 mph - N/A   Scattered Clouds
8:55 PM 30.2 °F 26.7 °F 17.6 °F 60% 30.41 in 10.0 mi WSW 3.5 mph - N/A   Clear
9:15 PM 30.2 °F 24.3 °F 17.6 °F 60% 30.41 in 10.0 mi West 5.8 mph - N/A   Clear
9:35 PM 28.4 °F - 19.4 °F 69% 30.41 in 10.0 mi Calm Calm - N/A   Clear
9:55 PM 30.2 °F - 17.6 °F 60% 30.41 in 10.0 mi Calm Calm - N/A   Clear
10:15 PM 28.4 °F - 17.6 °F 64% 30.39 in 10.0 mi Calm Calm - N/A   Clear
10:35 PM 26.6 °F - 17.6 °F 69% 30.39 in 10.0 mi Calm Calm - N/A   Clear
10:55 PM 28.4 °F - 17.6 °F 64% 30.38 in 10.0 mi Calm Calm - N/A   Scattered Clouds
11:15 PM 26.6 °F - 19.4 °F 74% 30.38 in 10.0 mi Calm Calm - N/A   Scattered Clouds
11:35 PM 28.4 °F - 17.6 °F 64% 30.36 in 10.0 mi Calm Calm - N/A   Scattered Clouds
11:55 PM 30.2 °F 25.4 °F 17.6 °F 60% 30.36 in 10.0 mi WSW 4.6 mph - N/A   Scattered Clouds